Hauptseite
METAR-TAF:

METAR-TAF

Flughäfen :

Heeresflugplatz Altenstadt

Altenstadt, Deutschland

Breite: 47-50N, Länge: 010-52E, Höhe: 739 m

Beobachtung

Neuester Wetterbericht von vor 36 Minuten, um 07:20 UTC
Wind 20 kt aus West
Temperatur 17°C
Luftfeuchtigkeit 77%
Luftdruck 1017 hPa

METAR: ETHA 230720Z AUTO 27020KT //// // ////// 17/13 Q1017 ///

Zeit: 09:56 (07:56 UTC)


TAF: fehlend

Wetterbeobachtungen und Prognosen von mehr als 4000 Flughäfen (METAR und TAF Bericht).

Die verfügbaren Stationen werden durch gelbe und rote Markierungen auf der Karte dargestellt.

Führen Sie die Maus auf sie, um den Namen der Station zu sehen.

Darauf klicken, um die Beobachtung von Wetterbeobachtungen und Prognosen zu sehen.

Um die Karte zu ändern : klicken Sie auf den grünen Tasten mit einem schwarzen Kreuz Zum Vergrößern, auf den grünen Button mit einem Gedankenstrich zu verkleinern, oder auf die grünen Pfeile für benachbarte Karten.


METAR-TAF: